О сайте АЭРОКЛУБЫ И АЭРОДРОМЫ:

Добрый день Уважаемые посетители сайта!
Этот ресурс создан с целью предоставить любителям малой авиации максимум полезной информации и возможностей по обмену различными сведениями об аэродромах и интересных маршрутах. Для этого на сайте есть странички Аэродромы - информация из баз АОПА (в том виде как она предоставляется к свободному использованию) и Каталог аэродромов и аэроклубов , с различными вариантами поиска и сортировки, возможностью найти трансфер, арендовать авто или забронировать номер в гостинице on-line, а так же возможностями :
- для аэроклубов - добавить какую либо дополнительную информацию в страничку , посвященную аэроклубу
(чтобы добавить информацию необходимо зарегистрироваться, и подтвердить свою принадлежность к какому либо аэроклубу)
- для посетителей - поделиться каким либо интересным маршрутом, нарисовать его на карте, описать достопримечательности, загрузить фотографии и поставить в соответствие с каким либо клубом или аэродромом.
(чтобы добавить информацию необходимо зарегистрироваться)

Аэроклубы / Аэродромы в Москве

Карта аэродромов в Москве по коду ИКАО

Список аэродромов Москвы

Javascript is required to view this map.

Авиационная погода в Москва - Домодедово

Погода METAR: 
UUDD 251730Z 27002MPS 240V300 CAVOK 20/09 Q1021 R88/CLRD60 NOSIG
Время наблюдения
2021-07-25T17:30:00Z
Температура C
20.0
Точка росы
9.0
Направление ветра
270
Скорость ветра (узлы)
4
Метео видимость
6.21
Явления погоды
Условия полета
VFR
Аэропорт подробнее: 

Авиационная погода в Москва - Шереметьево

Погода METAR: 
UUEE 251730Z VRB01MPS CAVOK 21/10 Q1021 R24C/CLRD62 R24R/CLRD62 NOSIG
Время наблюдения
2021-07-25T17:30:00Z
Температура C
21.0
Точка росы
10.0
Направление ветра
0
Скорость ветра (узлы)
2
Метео видимость
6.21
Явления погоды
Условия полета
VFR
Аэропорт подробнее: 

Авиационная погода в Москва - Внуково

Погода METAR: 
UUWW 251730Z 17002MPS CAVOK 20/11 Q1021 R24/000070 NOSIG
Время наблюдения
2021-07-25T17:30:00Z
Температура C
20.0
Точка росы
11.0
Направление ветра
170
Скорость ветра (узлы)
4
Метео видимость
6.21
Явления погоды
Условия полета
VFR
Аэропорт подробнее: 

Аэроклубы и аэродромы по регионам Юга России